map of OSL home
OSL - Airport
Location
City:  Oslo, Akershus, Norway
Name:Oslo Airport Gardermoen
ICAO:ENGM
IATA:OSL

Details
Type:Airport (Aerodrome, Airfield)
Use:Public/Civil, Military, International (customs port of entry)
Latitude:6011'38"N (60.193917)
Longitude:1106'01"E (11.100361)
Datum:WGS 1984
Elevation:681 ft (208 m)
Variation:3.52E (WMM2015 magnetic declination)
0.17 annual change
Runways:2
Longest:11811 × 148 ft (3600 × 45 m), paved

Time
Time Zone:UTC+1 (DST+2)
Local Time:

Weather
METAR:ENGM 200350Z 21015G25KT 170V230 CAVOK 11/06 Q0998 TEMPO 20018KT
TAF:ENGM 192300Z 2000/2024 20020KT 9999 SCT025
TEMPO 2000/2012 22020G30KT
BECMG 2015/2017 20010KT

Related Locations
Nearby:
Farthest:CHT: 11254 mi / 18112 km
Waitangi [Tuuta], CIT, NZ

Find:

   beyond  
but within

Other Information
Maps:
NOTAMs:
Links:
Sources:

  
  • flag of Norway
  

Airport Diagram

Airport diagram for OSL

Larger airport diagram (OBSOLETE) from NGA

Sectional Chart

Flight Planning
at skyvector.com

Satellite Image

Google Maps Satellite view

 

Copyright © 2004-2018 Karl L. Swartz. All rights reserved.
The Great Circle Mapper name and logo are trademarks of the Great Circle Mapper.
All other trademarks mentioned herein belong to their respective owners.
Please see credits for attibutions and further copyright information.

  Follow gcmap on Facebook Follow gcmap on Twitter Follow gcmap on Google+ GCmap on LinkedIn

hCard Microformat

Geo Microformat